Wind_Speed
41 43 43 41 46 47 47 37 34 41 41 43 41 38 41 43 46 49 52 51 53 58 60 64 66 68 65 67 69 65 61 61 64 64 67 74 68 49 44 46 46 52 61 70 71 70 72 76 80
44 44 43 45 50 49 46 44 44 42 43 46 45 42 44 47 51 54 56 56 58 62 65 66 67 69 71 69 68 66 61 62 65 69 69 74 64 50 47 50 52 53 55 66 73 72 72 75 79
46 47 46 51 51 50 49 48 54 51 47 50 50 53 51 52 55 56 58 59 62 65 66 68 69 71 70 74 64 60 62 59 65 73 77 67 53 50 51 56 59 63 60 60 67 72 74 74 78
40 50 49 52 55 52 51 51 55 56 53 51 55 56 54 57 58 58 61 63 67 68 72 71 71 74 73 71 66 66 67 70 69 74 68 56 52 53 56 56 61 63 64 60 63 70 76 79 79
54 50 50 55 59 52 50 53 59 60 57 55 57 58 59 59 64 64 65 67 72 75 77 73 71 78 77 65 70 77 76 75 72 65 55 52 52 53 55 59 61 64 64 64 64 68 76 82 82
58 56 54 58 60 55 49 57 63 60 61 60 61 59 62 66 66 67 67 69 76 81 82 75 76 73 60 73 80 83 83 71 65 54 49 52 50 52 55 57 59 65 69 69 69 73 75 77 83
60 59 59 63 62 60 55 61 63 64 64 65 65 63 65 65 68 69 72 74 81 81 82 78 73 68 75 75 81 82 71 68 55 47 49 51 49 49 54 56 62 67 69 72 76 75 77 77 80
65 59 63 65 64 62 62 64 66 65 67 70 68 65 69 71 73 72 72 78 81 83 81 77 77 78 78 84 88 87 70 65 56 51 49 51 52 54 55 57 58 59 64 69 72 75 76 78 81
66 61 70 71 64 63 70 69 68 65 69 73 69 71 74 76 71 70 75 79 83 81 78 79 81 84 88 85 87 68 62 55 54 51 51 51 51 53 54 57 59 62 64 67 70 73 76 76 78
69 68 70 69 66 67 70 73 70 66 69 73 74 74 71 67 67 71 76 79 78 78 77 80 82 86 89 85 65 64 58 56 53 51 53 56 53 52 54 56 58 57 58 60 60 64 66 68 72
72 63 71 71 70 70 71 74 72 69 73 75 72 69 65 66 68 72 75 77 78 72 77 81 86 85 80 61 61 56 52 51 53 54 52 53 52 53 52 50 51 51 50 52 55 57 58 61 65
70 67 70 69 73 72 74 72 71 73 74 75 72 64 65 69 70 75 80 76 74 72 78 81 84 84 62 58 57 51 49 49 50 51 52 50 49 46 45 42 43 43 44 46 47 48 48 53 59
68 71 70 72 73 76 76 70 70 75 74 73 66 63 68 71 73 75 73 73 73 75 82 86 82 66 61 56 53 49 47 48 50 49 48 44 40 36 35 37 39 40 41 42 45 42 43 45 49
73 71 71 73 75 77 75 70 75 70 74 67 67 67 69 70 71 68 71 71 77 80 84 82 71 60 58 54 51 49 47 49 46 43 40 37 36 35 35 35 39 41 42 45 40 36 38 40 42
74 73 72 71 75 73 74 71 71 71 70 67 64 63 66 68 65 68 72 73 79 85 85 71 58 58 55 54 50 47 47 43 38 39 33 33 35 37 36 36 39 39 39 39 33 32 35 35 37
69 72 75 79 77 76 70 68 67 62 60 61 63 65 66 60 63 68 71 79 84 85 86 61 58 56 54 53 47 46 42 39 38 32 29 32 34 38 40 43 43 38 36 31 29 28 31 31 32
72 79 77 80 75 72 59 65 64 61 61 61 62 65 61 61 65 70 74 81 83 80 73 59 56 55 52 49 44 40 38 37 32 27 29 34 38 38 41 42 36 33 31 24 24 25 26 27 29
79 64 68 75 71 65 60 59 59 59 61 60 63 57 58 62 66 72 77 80 81 79 59 56 54 52 48 42 37 36 36 31 28 28 32 35 38 42 41 38 32 28 23 20 19 19 20 22 24
66 60 67 76 67 62 59 58 59 60 60 58 55 53 58 66 70 70 76 80 80 58 58 51 51 47 40 34 34 34 30 25 26 29 30 34 39 37 34 31 30 24 18 16 14 15 17 19 20
66 60 65 71 66 60 57 54 57 57 52 48 48 54 60 66 71 77 81 75 64 56 54 50 46 38 32 32 33 30 26 23 24 25 29 36 34 29 28 29 25 18 14 13 10 13 14 18 22
66 62 66 68 60 56 56 56 57 52 48 45 50 57 62 70 73 73 74 73 55 56 46 45 38 32 28 31 29 24 21 21 22 28 32 31 27 26 25 23 17 13 10 8 8 12 13 16 22
65 67 69 66 63 59 57 54 53 50 41 49 55 58 64 66 70 74 72 52 55 48 42 39 32 28 28 28 23 19 20 17 23 28 31 29 27 26 22 16 11 8 6 4 8 12 15 20 21
67 74 69 67 63 59 51 43 53 47 53 56 58 59 59 66 68 61 52 51 48 45 40 33 27 26 27 24 20 19 14 15 25 32 30 25 25 28 19 11 9 5 2 5 10 12 17 21 22
70 69 66 62 57 47 51 49 50 47 53 53 53 54 59 63 59 48 47 50 44 38 33 26 24 24 23 19 15 11 11 19 27 31 22 22 25 24 15 11 6 2 1 6 10 14 20 22 22
57 54 52 48 46 47 55 45 42 44 47 48 52 54 52 50 43 43 49 46 35 32 24 21 21 21 18 13 7 4 10 19 26 31 20 20 22 17 15 10 5 3 4 9 10 15 22 22 22
49 51 47 47 49 49 50 36 37 43 44 46 47 41 43 39 35 40 39 36 31 25 18 19 18 16 13 10 0 5 15 19 27 30 21 21 21 17 14 10 7 6 9 13 13 17 21 22 28
57 44 50 50 49 43 32 40 39 38 39 46 42 34 33 29 32 36 34 30 25 16 14 17 15 13 11 6 2 5 12 18 27 24 22 23 23 19 13 12 9 12 16 15 16 20 22 29 33
58 56 57 47 40 37 41 41 40 37 38 43 28 30 26 28 27 27 29 22 17 11 13 15 13 11 10 4 3 6 15 17 22 23 21 23 21 20 13 11 11 14 15 16 17 20 29 33 36
58 48 43 43 41 42 43 39 40 34 41 29 24 25 23 22 23 23 19 14 12 10 12 15 12 10 9 2 2 6 15 14 22 22 19 22 20 18 15 10 11 13 14 15 15 19 31 35 39
63 57 55 48 48 46 46 45 39 37 36 24 22 20 20 20 16 17 11 11 8 8 11 15 12 10 9 2 6 2 14 15 23 20 23 22 27 21 24 18 15 13 14 14 15 19 25 30 37
Wind_Direction
274 286 291 296 300 303 300 305 305 312 301 306 311 311 306 301 299 300 300 301 303 303 307 307 310 309 307 305 309 305 294 294 306 306 308 309 306 286 267 257 255 254 250 243 242 239 237 236 234
274 284 285 292 301 301 299 290 298 313 303 300 302 305 301 300 301 302 304 303 304 306 305 306 310 310 307 304 307 300 292 303 308 307 310 305 298 282 262 255 256 256 255 249 245 243 241 237 235
276 282 285 290 295 297 298 291 296 302 306 300 300 301 303 304 303 302 306 307 310 307 306 308 310 309 307 306 303 296 304 301 308 309 306 300 287 270 259 253 251 254 256 254 250 248 246 243 239
269 278 281 286 290 294 295 292 296 300 301 301 298 299 298 304 305 299 300 305 308 310 308 305 310 308 304 306 306 314 310 308 305 306 303 290 284 268 258 254 251 252 254 252 250 247 247 246 245
259 261 277 283 287 289 290 289 294 297 297 303 300 298 294 300 302 302 299 303 306 306 309 308 310 310 304 305 307 311 309 308 305 302 289 286 288 272 260 256 256 254 249 247 247 247 246 244 244
265 267 277 281 282 288 291 284 292 292 296 298 299 300 297 297 302 302 301 301 303 303 307 309 311 309 308 306 307 311 309 304 299 291 285 285 285 275 266 262 264 261 256 251 249 249 247 246 246
260 269 281 283 284 289 290 291 293 293 296 298 301 294 297 299 302 301 299 300 302 305 309 310 310 298 304 311 311 315 305 302 294 287 285 285 280 276 269 265 265 262 260 258 255 256 254 250 247
263 271 281 281 284 285 288 292 290 292 295 300 298 294 299 299 300 299 299 300 303 307 311 308 304 306 311 311 311 309 301 299 290 287 285 282 279 273 268 268 269 267 264 262 261 259 257 254 249
266 278 283 277 279 277 284 291 288 294 297 297 295 297 300 300 298 298 299 302 306 309 308 306 307 308 311 312 310 303 300 297 291 288 286 286 283 280 277 273 270 269 267 265 263 260 258 256 252
269 276 277 276 276 280 285 291 291 293 294 293 297 296 297 296 296 299 301 302 306 308 305 308 311 313 312 311 307 305 300 299 298 296 295 291 289 285 280 275 272 271 269 268 265 261 258 255 250
266 273 273 271 276 280 284 288 290 290 294 293 295 297 294 296 299 301 301 303 306 309 307 309 311 314 313 310 310 307 301 299 298 296 293 292 289 284 282 278 275 273 270 267 265 262 258 254 248
271 273 269 273 277 279 280 284 287 289 290 293 296 293 296 297 297 300 301 304 310 306 307 308 316 317 309 308 310 307 300 298 297 295 292 291 289 290 284 282 277 274 272 272 270 266 259 250 247
272 269 275 274 275 274 279 282 283 288 290 293 292 294 296 294 297 300 300 305 307 307 308 312 316 311 309 309 309 304 300 299 297 296 294 292 292 291 290 289 285 284 283 283 277 270 260 253 249
268 269 269 270 269 272 277 283 285 283 290 291 291 294 294 296 297 300 300 305 305 308 312 316 315 313 312 310 308 305 303 301 299 295 297 301 302 301 298 293 290 288 287 282 277 268 261 253 249
264 266 267 266 266 273 277 283 281 284 288 288 289 291 293 295 299 299 303 304 305 310 317 317 313 316 314 312 308 306 306 302 299 302 306 305 306 303 303 298 295 290 283 280 273 265 256 250 245
261 263 262 266 271 272 281 277 278 285 286 285 289 290 293 296 296 299 302 306 307 316 320 316 313 317 310 308 309 308 305 303 304 305 303 301 301 303 300 300 297 292 284 278 274 262 253 246 238
258 256 260 265 271 277 274 273 277 279 282 286 289 291 294 295 297 300 303 306 312 319 315 313 316 313 308 307 309 307 305 307 307 304 301 302 306 304 304 305 299 294 286 274 268 258 249 242 231
252 260 265 265 268 270 268 272 275 278 283 285 289 292 293 297 298 300 305 309 314 315 314 316 314 310 307 310 309 307 309 309 299 304 309 311 309 309 306 305 299 293 285 279 269 253 240 227 218
258 260 259 262 263 264 268 270 276 279 283 288 292 294 295 297 299 303 305 313 316 313 317 315 313 308 310 311 308 309 309 305 303 313 316 313 312 311 303 302 300 299 287 284 262 244 228 212 202
256 259 256 258 260 263 266 270 273 279 285 288 292 291 295 300 302 306 312 312 314 317 316 311 309 312 314 310 312 312 309 305 310 319 317 314 316 314 308 304 304 296 289 277 249 229 210 198 191
256 255 254 257 260 263 268 271 277 282 287 288 285 290 297 301 305 310 311 315 315 315 309 309 311 312 315 311 316 313 307 312 324 319 318 322 325 319 312 312 307 299 293 261 224 208 192 193 185
251 248 252 256 262 264 270 278 283 286 285 280 285 290 297 304 308 311 314 313 314 311 307 308 309 314 316 315 318 310 308 324 325 332 325 330 329 330 325 325 314 303 283 220 200 187 175 179 183
241 249 253 257 264 269 277 271 273 275 276 283 287 293 301 306 308 310 313 316 311 307 305 307 317 318 318 320 312 306 325 345 333 339 327 337 338 338 333 337 325 310 290 191 177 176 172 174 176
245 252 255 261 267 269 266 261 265 268 277 285 288 296 298 305 308 307 308 306 306 302 306 316 323 321 323 322 300 308 3 344 335 338 339 347 344 346 343 343 335 320 177 164 161 163 162 166 168
242 246 251 255 255 252 257 263 265 266 276 286 290 298 304 304 299 296 296 299 301 305 310 320 326 328 325 335 315 12 353 330 338 347 345 353 345 352 352 3 17 77 141 149 143 147 159 167 164
238 238 238 241 243 245 263 268 267 276 280 287 296 303 298 292 293 294 298 297 303 305 313 322 329 330 329 344 254 3 336 334 348 350 359 5 1 360 1 12 48 88 135 139 134 144 158 164 161
238 236 239 241 246 251 261 266 267 271 287 289 301 287 281 289 292 298 293 292 301 311 323 326 332 339 338 340 122 332 333 336 356 360 15 20 20 22 23 33 68 103 123 126 130 146 160 166 163
238 237 239 245 248 253 255 259 268 279 291 296 285 270 283 294 294 299 298 300 300 324 327 331 342 348 351 4 140 333 333 346 3 7 22 27 27 28 27 37 67 106 118 120 122 148 165 169 172
238 243 247 248 250 252 252 260 267 290 291 290 257 263 287 297 301 307 297 308 309 332 335 339 348 357 4 75 155 334 337 355 11 13 29 38 34 33 24 30 67 98 113 109 116 144 167 173 173
236 232 234 235 242 245 250 263 278 285 276 246 245 260 287 293 314 315 318 325 313 334 338 339 345 3 359 102 159 13 9 6 16 37 47 42 48 46 51 59 71 94 110 113 135 155 164 179 181
Height
10915 10913 10914 10914 10916 10918 10919 10920 10921 10918 10916 10913 10911 10906 10901 10896 10893 10891 10886 10884 10882 10878 10875 10872 10867 10863 10857 10852 10847 10842 10837 10832 10828 10823 10819 10814 10809 10802 10802 10803 10804 10805 10808 10813 10819 10824 10828 10834 10838
10911 10908 10907 10908 10909 10910 10911 10913 10911 10912 10910 10908 10905 10900 10894 10890 10884 10878 10876 10874 10870 10866 10861 10859 10855 10850 10846 10841 10836 10829 10824 10820 10814 10810 10803 10801 10796 10793 10791 10791 10792 10792 10794 10796 10800 10805 10812 10817 10823
10905 10903 10901 10902 10903 10902 10904 10903 10903 10903 10903 10901 10898 10893 10886 10880 10876 10869 10863 10861 10857 10852 10849 10847 10842 10837 10832 10826 10822 10817 10813 10805 10797 10793 10791 10784 10780 10780 10780 10782 10781 10780 10779 10781 10785 10790 10796 10803 10808
10899 10898 10895 10894 10894 10897 10898 10896 10895 10894 10896 10895 10893 10888 10881 10875 10870 10863 10856 10851 10845 10839 10838 10835 10829 10824 10817 10813 10807 10802 10797 10793 10786 10777 10772 10767 10766 10765 10766 10767 10768 10767 10767 10767 10768 10772 10778 10783 10789
10888 10888 10890 10886 10884 10891 10893 10891 10888 10886 10886 10884 10883 10881 10874 10870 10864 10857 10851 10845 10836 10829 10826 10823 10818 10812 10805 10798 10791 10788 10782 10775 10770 10763 10758 10753 10751 10751 10751 10749 10749 10750 10750 10751 10754 10758 10762 10764 10770
10881 10882 10883 10880 10876 10879 10884 10884 10881 10880 10878 10876 10873 10870 10864 10860 10855 10849 10842 10836 10828 10821 10816 10812 10807 10802 10795 10789 10781 10772 10762 10757 10754 10748 10744 10741 10738 10737 10736 10736 10735 10734 10734 10738 10740 10741 10745 10750 10756
10873 10878 10876 10873 10869 10868 10875 10874 10872 10869 10868 10867 10865 10860 10855 10851 10845 10839 10832 10826 10817 10809 10804 10800 10796 10792 10786 10777 10766 10755 10747 10740 10737 10734 10731 10726 10723 10722 10722 10721 10719 10719 10719 10721 10725 10727 10729 10734 10738
10867 10874 10868 10863 10864 10861 10863 10867 10863 10862 10859 10856 10854 10850 10843 10837 10833 10828 10821 10814 10804 10797 10792 10789 10785 10778 10769 10762 10751 10741 10734 10730 10725 10721 10719 10716 10712 10710 10707 10706 10704 10703 10704 10703 10703 10704 10706 10710 10716
10860 10865 10860 10853 10856 10857 10849 10854 10853 10855 10851 10845 10843 10838 10833 10826 10821 10815 10809 10802 10795 10787 10780 10775 10770 10763 10753 10744 10734 10724 10717 10713 10710 10706 10702 10700 10698 10695 10693 10691 10688 10686 10685 10684 10685 10685 10686 10689 10693
10852 10857 10849 10843 10845 10846 10842 10844 10844 10845 10841 10835 10836 10831 10823 10816 10811 10805 10798 10792 10785 10779 10771 10764 10756 10748 10737 10727 10717 10708 10701 10696 10693 10689 10686 10681 10680 10679 10676 10673 10669 10668 10667 10665 10666 10665 10666 10669 10672
10842 10849 10837 10835 10833 10836 10837 10831 10831 10835 10830 10825 10825 10819 10810 10805 10800 10793 10786 10781 10776 10771 10763 10754 10745 10734 10723 10713 10705 10695 10687 10683 10679 10675 10670 10667 10665 10661 10659 10657 10654 10652 10650 10649 10648 10648 10648 10650 10653
10831 10833 10828 10829 10823 10824 10826 10827 10822 10818 10821 10815 10812 10806 10799 10793 10788 10783 10775 10769 10766 10762 10754 10746 10734 10722 10712 10704 10695 10687 10681 10676 10669 10664 10660 10656 10652 10648 10644 10641 10639 10638 10636 10634 10632 10631 10631 10632 10635
10821 10816 10819 10822 10816 10809 10814 10818 10814 10808 10808 10807 10801 10796 10790 10783 10777 10770 10764 10760 10755 10751 10744 10733 10722 10709 10701 10693 10685 10679 10673 10666 10660 10654 10647 10645 10643 10639 10633 10629 10626 10624 10622 10620 10617 10617 10616 10618 10620
10802 10808 10810 10808 10803 10801 10802 10809 10805 10794 10798 10795 10792 10786 10779 10772 10766 10761 10755 10753 10745 10739 10732 10720 10707 10698 10690 10682 10676 10670 10663 10654 10648 10642 10639 10635 10631 10627 10624 10620 10616 10614 10611 10607 10605 10604 10605 10606 10609
10796 10800 10799 10793 10786 10797 10794 10805 10792 10789 10791 10783 10782 10775 10771 10763 10757 10752 10746 10741 10734 10728 10718 10706 10696 10687 10678 10671 10665 10658 10651 10645 10639 10634 10631 10626 10624 10619 10615 10612 10608 10604 10600 10597 10596 10595 10595 10597 10600
10785 10789 10787 10772 10781 10782 10794 10783 10782 10783 10781 10774 10771 10767 10761 10753 10748 10743 10737 10728 10722 10714 10704 10694 10686 10678 10670 10662 10653 10648 10642 10637 10632 10627 10624 10621 10617 10612 10607 10602 10598 10594 10590 10588 10587 10587 10587 10589 10591
10772 10770 10775 10767 10772 10777 10784 10768 10775 10773 10773 10764 10762 10757 10749 10744 10740 10734 10728 10722 10714 10704 10695 10686 10677 10669 10661 10653 10646 10639 10635 10630 10624 10621 10618 10614 10611 10605 10599 10592 10587 10584 10582 10581 10581 10580 10580 10582 10585
10745 10763 10765 10754 10764 10769 10771 10766 10766 10764 10763 10757 10752 10746 10740 10736 10732 10727 10720 10713 10706 10696 10686 10677 10668 10661 10653 10645 10638 10634 10629 10624 10619 10617 10613 10610 10604 10599 10592 10585 10580 10577 10575 10575 10574 10574 10575 10577 10581
10743 10753 10750 10737 10754 10758 10761 10762 10756 10754 10751 10747 10742 10735 10730 10726 10722 10719 10713 10706 10695 10686 10678 10668 10660 10653 10646 10638 10634 10629 10623 10620 10616 10613 10610 10605 10599 10593 10584 10577 10573 10571 10570 10570 10570 10570 10572 10575 10580
10732 10739 10732 10730 10739 10750 10753 10754 10749 10745 10740 10738 10733 10728 10723 10717 10713 10706 10701 10695 10686 10678 10669 10661 10654 10647 10640 10633 10629 10623 10619 10616 10613 10611 10607 10601 10594 10586 10578 10572 10568 10567 10567 10568 10568 10569 10571 10574 10578
10720 10722 10716 10716 10732 10740 10742 10741 10742 10736 10734 10732 10725 10720 10716 10709 10704 10700 10693 10685 10677 10669 10663 10655 10649 10642 10635 10628 10624 10620 10617 10614 10610 10607 10604 10597 10589 10581 10573 10568 10565 10565 10565 10566 10567 10568 10570 10575 10580
10701 10699 10698 10709 10720 10728 10733 10731 10727 10726 10729 10724 10718 10716 10710 10703 10697 10690 10684 10676 10670 10663 10656 10650 10644 10636 10630 10624 10620 10618 10615 10612 10610 10607 10600 10593 10585 10576 10570 10566 10564 10564 10564 10565 10567 10569 10572 10577 10584
10681 10681 10692 10699 10711 10720 10721 10721 10713 10724 10720 10714 10711 10711 10703 10696 10691 10685 10676 10670 10664 10658 10653 10646 10639 10632 10626 10621 10618 10616 10615 10612 10610 10604 10597 10591 10581 10574 10569 10565 10564 10564 10564 10566 10567 10571 10574 10580 10587
10663 10677 10686 10695 10703 10711 10705 10710 10710 10716 10710 10705 10703 10703 10697 10691 10685 10678 10673 10668 10660 10655 10648 10641 10635 10629 10623 10619 10616 10616 10614 10612 10609 10603 10594 10588 10579 10573 10569 10566 10564 10565 10566 10568 10570 10573 10578 10584 10590
10661 10667 10681 10687 10693 10698 10689 10703 10705 10708 10704 10699 10697 10697 10689 10684 10679 10675 10671 10663 10657 10650 10644 10638 10632 10626 10621 10617 10615 10616 10615 10613 10610 10602 10593 10586 10579 10574 10570 10568 10567 10567 10569 10570 10573 10577 10582 10588 10592
10647 10654 10668 10674 10677 10682 10687 10699 10699 10699 10695 10692 10691 10688 10683 10680 10676 10672 10666 10658 10652 10647 10641 10635 10629 10625 10620 10617 10616 10616 10616 10614 10610 10601 10592 10585 10580 10576 10572 10571 10570 10570 10572 10574 10577 10581 10585 10590 10595
10637 10652 10653 10659 10666 10677 10688 10687 10692 10691 10687 10686 10687 10682 10680 10676 10672 10668 10661 10654 10649 10643 10638 10632 10627 10622 10619 10617 10617 10617 10617 10615 10610 10602 10594 10587 10582 10579 10576 10575 10574 10574 10575 10578 10581 10585 10589 10595 10601
10630 10635 10638 10655 10667 10675 10677 10681 10683 10682 10679 10681 10680 10679 10675 10672 10669 10663 10656 10650 10645 10639 10636 10631 10626 10621 10618 10617 10618 10618 10618 10616 10611 10603 10597 10592 10588 10584 10581 10579 10578 10579 10580 10583 10585 10589 10593 10600 10607
10622 10637 10645 10652 10661 10666 10671 10671 10675 10675 10672 10676 10676 10675 10671 10668 10664 10658 10651 10646 10641 10637 10633 10629 10625 10620 10618 10618 10619 10621 10619 10618 10612 10605 10600 10596 10592 10590 10588 10584 10584 10583 10585 10587 10590 10593 10599 10604 10611
10612 10623 10630 10640 10650 10657 10662 10664 10669 10667 10666 10670 10671 10671 10668 10666 10660 10655 10648 10642 10639 10635 10631 10627 10623 10619 10618 10619 10621 10623 10622 10620 10614 10608 10605 10601 10597 10595 10594 10591 10588 10588 10590 10592 10595 10599 10604 10609 10616